EW7114 Weather Reports


time (UTC)temp
F
wind
direction
speed
knots
gust
knots
rain 1hr
in
rain 24hr
in
rain mn
in
humidity
%
barometer
mb
20260905161043 75 122 14.8 20.9 0.00 0.00 0.00 28 1005.3
20260905160541 75 122 14.8 20.9 0.00 0.00 0.00 27 1005.5
20260905160108 75 138 14.8 18.2 0.00 0.00 0.00 27 1005.4
20260905155542 75 138 13.0 19.1 0.00 0.00 0.00 27 1005.4
20260905155139 74 153 13.0 19.1 0.00 0.00 0.00 28 1005.5
20260905154540 74 136 13.9 19.1 0.00 0.00 0.00 27 1005.5
20260905154039 74 149 12.2 19.1 0.00 0.00 0.00 27 1005.5
20260905153538 74 122 13.0 18.2 0.00 0.00 0.00 26 1005.5
20260905153037 74 131 11.3 17.4 0.00 0.00 0.00 27 1005.5
20260905152537 74 130 9.6 20.0 0.00 0.00 0.00 29 1005.6
20260905152034 73 116 13.0 20.0 0.00 0.00 0.00 27 1005.6
20260905151535 72 137 13.0 17.4 0.00 0.00 0.00 29 1005.6
20260905151032 72 124 12.2 18.2 0.00 0.00 0.00 31 1005.6
20260905150531 71 115 13.9 17.4 0.00 0.00 0.00 31 1005.5
20260905150030 71 126 13.0 17.4 0.00 0.00 0.00 32 1005.6
20260905145527 71 117 13.9 20.9 0.00 0.00 0.00 31 1005.6
20260905145029 70 148 10.4 18.2 0.00 0.00 0.00 34 1005.6
20260905144526 69 128 9.6 13.9 0.00 0.00 0.00 35 1005.6
20260905144031 69 133 10.4 13.9 0.00 0.00 0.00 35 1005.6
20260905143527 68 149 9.6 13.0 0.00 0.00 0.00 35 1005.6
20260905143025 67 132 10.4 12.2 0.00 0.00 0.00 35 1005.6
20260905142524 66 139 7.0 11.3 0.00 0.00 0.00 37 1005.6
20260905142023 65 120 8.7 11.3 0.00 0.00 0.00 37 1005.4
20260905141523 64 133 7.0 11.3 0.00 0.00 0.00 38 1005.3
20260905141022 63 116 7.8 11.3 0.00 0.00 0.00 39 1005.2
20260905140525 62 131 7.0 11.3 0.00 0.00 0.00 39 1005.2
20260905140021 62 113 8.7 13.0 0.00 0.00 0.00 39 1005.1
20260905135520 61 146 9.6 13.0 0.00 0.00 0.00 40 1005.0
20260905135019 60 138 9.6 13.9 0.00 0.00 0.00 40 1004.9
20260905134521 59 152 7.8 12.2 0.00 0.00 0.00 41 1005.0
20260905134021 59 131 7.0 10.4 0.00 0.00 0.00 41 1004.9
20260905133517 59 161 7.0 10.4 0.00 0.00 0.00 39 1004.9
20260905133016 58 145 7.8 12.2 0.00 0.00 0.00 41 1004.7
20260905132517 58 151 7.0 12.2 0.00 0.00 0.00 42 1004.6
20260905132015 56 145 8.7 11.3 0.00 0.00 0.00 43 1004.5
20260905131514 56 157 6.1 9.6 0.00 0.00 0.00 43 1004.4
20260905131013 57 168 7.0 9.6 0.00 0.00 0.00 41 1004.4
20260905130512 59 165 7.0 12.2 0.00 0.00 0.00 40 1004.3
20260905130011 58 147 8.7 12.2 0.00 0.00 0.00 41 1004.3
20260905125513 58 172 7.0 8.7 0.00 0.00 0.00 40 1004.3
20260905125009 60 192 6.1 9.6 0.00 0.00 0.00 39 1004.2
20260905124508 60 145 6.1 9.6 0.00 0.00 0.00 39 1004.2
20260905124009 60 132 7.8 9.6 0.00 0.00 0.00 39 1004.1
20260905123505 61 159 7.0 13.0 0.00 0.00 0.00 38 1004.1
20260905123004 61 124 8.7 13.0 0.00 0.00 0.00 38 1004.0
20260905122508 61 116 8.7 13.9 0.00 0.00 0.00 39 1003.9
20260905122005 61 143 8.7 13.0 0.00 0.00 0.00 38 1003.8
20260905121502 63 153 7.8 13.0 0.00 0.00 0.00 37 1003.8
20260905121005 63 125 9.6 15.6 0.00 0.00 0.00 37 1003.8
20260905120501 63 137 11.3 15.6 0.00 0.00 0.00 37 1003.7
20260905120118 63 169 7.0 13.9 0.00 0.00 0.00 36 1003.8
20260905115600 62 122 7.0 14.8 0.00 0.00 0.00 37 1003.6
20260905115103 62 147 8.7 14.8 0.00 0.00 0.00 37 1003.7
20260905114559 62 117 8.7 13.0 0.00 0.00 0.00 37 1003.6
20260905114058 63 138 9.6 13.9 0.00 0.00 0.00 37 1003.6
20260905113559 63 145 9.6 14.8 0.00 0.00 0.00 36 1003.6
20260905113059 65 134 7.8 16.5 0.00 0.00 0.00 36 1003.6
20260905112558 65 122 11.3 19.1 0.00 0.00 0.00 35 1003.6
20260905112057 65 129 13.0 18.2 0.00 0.00 0.00 35 1003.6
20260905111610 65 131 10.4 18.2 0.00 0.00 0.00 36 1003.7
20260905111056 64 132 10.4 16.5 0.00 0.00 0.00 36 1003.6
20260905110555 63 139 12.2 18.2 0.00 0.00 0.00 38 1003.6
20260905110100 63 134 10.4 19.1 0.00 0.00 0.00 37 1003.5
20260905105556 64 134 12.2 19.1 0.00 0.00 0.00 37 1003.5
20260905105054 63 139 11.3 19.1 0.00 0.00 0.00 38 1003.4
20260905104554 63 132 13.9 19.1 0.00 0.00 0.00 38 1003.3
20260905104054 63 131 13.0 18.2 0.00 0.00 0.00 38 1003.3
20260905103554 63 133 13.0 18.2 0.00 0.00 0.00 39 1003.3
20260905103054 63 149 12.2 19.1 0.00 0.00 0.00 40 1003.3
20260905102551 63 134 11.3 19.1 0.00 0.00 0.00 40 1003.3
20260905102051 62 138 12.2 17.4 0.00 0.00 0.00 41 1003.3
20260905101550 62 130 12.2 18.2 0.00 0.00 0.00 40 1003.2
20260905101049 63 133 11.3 18.2 0.00 0.00 0.00 41 1003.2
20260905100548 63 144 13.0 18.2 0.00 0.00 0.00 41 1003.1
20260905100052 63 143 13.0 18.2 0.00 0.00 0.00 40 1003.0
20260905095547 64 145 12.2 16.5 0.00 0.00 0.00 39 1003.0
20260905095046 67 143 12.2 18.2 0.00 0.00 0.00 36 1002.9
20260905094546 69 151 13.9 19.1 0.00 0.00 0.00 33 1002.9
20260905094044 69 149 13.0 20.0 0.00 0.00 0.00 32 1002.7
20260905093544 68 155 13.9 20.0 0.00 0.00 0.00 32 1002.7
20260905093043 69 168 13.0 20.0 0.00 0.00 0.00 33 1002.6
20260905092546 69 156 13.9 18.2 0.00 0.00 0.00 33 1002.6
20260905092042 69 158 11.3 15.6 0.00 0.00 0.00 33 1002.6
20260905091613 69 183 12.2 20.0 0.00 0.00 0.00 32 1002.4
20260905091040 69 153 13.0 20.0 0.00 0.00 0.00 33 1002.4
20260905090540 69 157 15.6 18.2 0.00 0.00 0.00 33 1002.4
20260905090040 68 160 12.2 18.2 0.00 0.00 0.00 34 1002.4
20260905085539 67 170 13.9 17.4 0.00 0.00 0.00 36 1002.3
20260905085038 65 152 13.0 17.4 0.00 0.00 0.00 40 1002.4
20260905084540 64 145 12.2 17.4 0.00 0.00 0.00 42 1002.4
20260905084038 64 130 11.3 15.6 0.00 0.00 0.00 42 1002.4
20260905083537 64 129 9.6 14.8 0.00 0.00 0.00 43 1002.5
20260905083037 64 153 11.3 14.8 0.00 0.00 0.00 43 1002.4
20260905082536 64 135 10.4 16.5 0.00 0.00 0.00 42 1002.3
20260905082036 65 152 10.4 17.4 0.00 0.00 0.00 41 1002.3
20260905081535 65 140 9.6 12.2 0.00 0.00 0.00 40 1002.3
20260905081034 65 153 9.6 13.0 0.00 0.00 0.00 39 1002.2
20260905080536 66 145 8.7 12.2 0.00 0.00 0.00 37 1002.2
20260905080516 66 141 8.7 12.2 0.00 0.00 0.00 37 1002.2
20260905080040 67 155 8.7 12.2 0.00 0.00 0.00 36 1002.2
20260905075532 67 159 9.6 14.8 0.00 0.00 0.00 36 1002.1
20260905075030 66 155 10.4 14.8 0.00 0.00 0.00 39 1002.1
20260905074530 62 153 9.6 14.8 0.00 0.00 0.00 45 1002.0
20260905074033 63 143 10.4 14.8 0.00 0.00 0.00 45 1002.0
20260905073529 64 127 10.4 13.9 0.00 0.00 0.00 43 1002.0
20260905073028 67 140 9.6 13.9 0.00 0.00 0.00 40 1001.9
20260905072527 65 161 12.2 13.9 0.00 0.00 0.00 40 1001.8
20260905072026 64 149 10.4 17.4 0.00 0.00 0.00 43 1001.7
20260905071524 62 141 8.7 13.0 0.00 0.00 0.00 46 1001.6
20260905071027 63 137 8.7 14.8 0.00 0.00 0.00 45 1001.5
20260905070521 63 156 10.4 16.5 0.00 0.00 0.00 44 1001.4
20260905070024 64 144 12.2 16.5 0.00 0.00 0.00 43 1001.3
20260905065519 65 148 10.4 14.8 0.00 0.00 0.00 42 1001.2
20260905065018 66 130 9.6 15.6 0.00 0.00 0.00 41 1001.2
20260905064519 67 129 10.4 17.4 0.00 0.00 0.00 41 1001.2
20260905064016 66 136 10.4 15.6 0.00 0.00 0.00 41 1001.1
20260905063515 66 123 10.4 15.6 0.00 0.00 0.00 41 1001.1
20260905063015 66 131 9.6 13.9 0.00 0.00 0.00 41 1001.0
20260905062518 66 122 11.3 13.9 0.00 0.00 0.00 41 1001.0
20260905062013 66 136 9.6 13.9 0.00 0.00 0.00 42 1001.0
20260905061512 66 136 8.7 12.2 0.00 0.00 0.00 42 1000.9
20260905061012 67 120 8.7 14.8 0.00 0.00 0.00 41 1000.9
20260905060513 68 141 8.7 14.8 0.00 0.00 0.00 39 1000.8
20260905060012 69 146 10.4 15.6 0.00 0.00 0.00 38 1000.8
20260905055509 70 151 11.3 15.6 0.00 0.00 0.00 37 1000.6
20260905055009 70 166 11.3 18.2 0.00 0.00 0.00 37 1000.5
20260905054514 71 131 13.0 18.2 0.00 0.00 0.00 37 1000.5
20260905054006 71 147 11.3 18.2 0.00 0.00 0.00 36 1000.5
20260905053506 72 131 13.0 18.2 0.00 0.00 0.00 36 1000.4
20260905053007 72 148 12.2 19.1 0.00 0.00 0.00 35 1000.4
20260905052509 71 136 14.8 19.1 0.00 0.00 0.00 36 1000.4
20260905052006 70 129 8.7 15.6 0.00 0.00 0.00 37 1000.2
20260905051511 69 187 6.1 12.2 0.00 0.00 0.00 37 1000.2
20260905051004 70 149 7.8 12.2 0.00 0.00 0.00 36 1000.3
20260905050507 72 156 7.8 20.9 0.00 0.00 0.00 35 1000.3
20260905050004 74 158 12.2 20.9 0.00 0.00 0.00 34 1000.2
20260905045505 74 112 15.6 23.5 0.00 0.00 0.00 33 999.9
20260905045006 73 105 17.4 23.5 0.00 0.00 0.00 34 1000.0
20260905044504 73 127 7.0 20.0 0.00 0.00 0.00 34 1000.2
20260905044004 73 176 13.0 20.0 0.00 0.00 0.00 33 1000.2
20260905043504 71 171 8.7 13.9 0.00 0.00 0.00 35 1000.2
20260905043003 71 149 7.0 13.0 0.00 0.00 0.00 34 1000.3
20260905042504 72 158 7.8 13.0 0.00 0.00 0.00 34 1000.3
20260905042002 72 163 7.8 12.2 0.00 0.00 0.00 34 1000.1
20260905041502 71 149 7.8 12.2 0.00 0.00 0.00 35 1000.1
20260905041001 71 152 8.7 15.6 0.00 0.00 0.00 35 1000.2
20260905040502 70 141 7.8 15.6 0.00 0.00 0.00 33 1000.2
20260905040100 71 162 7.0 12.2 0.00 0.00 0.00 33 1000.1
20260905035600 71 159 7.0 12.2 0.00 0.00 0.00 33 1000.1
20260905035105 71 149 7.8 10.4 0.00 0.00 0.00 33 1000.1
20260905034611 71 132 6.1 9.6 0.00 0.00 0.00 34 999.9
20260905034058 72 136 7.0 9.6 0.00 0.00 0.00 31 999.9
20260905033559 73 157 5.2 13.0 0.00 0.00 0.00 31 999.9
20260905033101 75 119 6.1 17.4 0.00 0.00 0.00 31 999.9
20260905032559 76 144 8.7 17.4 0.00 0.00 0.00 29 999.8
20260905032058 76 157 9.6 16.5 0.00 0.00 0.00 29 999.7
20260905031606 77 179 9.6 19.1 0.00 0.00 0.00 28 999.7
20260905031058 77 182 11.3 19.1 0.00 0.00 0.00 28 999.6
20260905030558 76 180 9.6 16.5 0.00 0.00 0.00 28 999.6
20260905030058 76 165 7.8 14.8 0.00 0.00 0.00 28 999.4
20260905025558 76 169 7.0 11.3 0.00 0.00 0.00 28 999.4
20260905025059 76 145 7.0 15.6 0.00 0.00 0.00 28 999.2
20260905024602 76 161 8.7 16.5 0.00 0.00 0.00 28 999.0
20260905024057 76 170 9.6 17.4 0.00 0.00 0.00 28 999.0
20260905023559 75 147 7.0 14.8 0.00 0.00 0.00 29 998.9
20260905023100 75 143 8.7 14.8 0.00 0.00 0.00 29 998.8
20260905022556 75 141 7.8 12.2 0.00 0.00 0.00 30 998.7
20260905022058 76 135 8.7 13.9 0.00 0.00 0.00 30 998.7
20260905021558 76 148 8.7 13.9 0.00 0.00 0.00 29 998.7
20260905021055 77 152 10.4 15.6 0.00 0.00 0.00 28 998.6
20260905020555 77 152 11.3 15.6 0.00 0.00 0.00 28 998.6
20260905020055 77 152 8.7 13.0 0.00 0.00 0.00 28 998.6
20260905015555 78 166 9.6 14.8 0.00 0.00 0.00 27 998.5
20260905015055 78 159 11.3 18.2 0.00 0.00 0.00 28 998.4
20260905014554 78 157 11.3 20.0 0.00 0.00 0.00 28 998.4
20260905014054 79 156 11.3 20.0 0.00 0.00 0.00 28 998.4
20260905013554 79 172 10.4 17.4 0.00 0.00 0.00 28 998.4
20260905013054 80 161 12.2 18.2 0.00 0.00 0.00 27 998.3
20260905012554 80 164 11.3 21.7 0.00 0.00 0.00 28 998.3
20260905012054 81 162 15.6 21.7 0.00 0.00 0.00 27 998.3
20260905011556 81 169 13.0 21.7 0.00 0.00 0.00 27 998.3
20260905011054 81 134 16.5 24.3 0.00 0.00 0.00 27 998.3
20260905010553 81 179 14.8 26.1 0.00 0.00 0.00 27 998.3
20260905010054 82 180 19.1 26.1 0.00 0.00 0.00 27 998.3
20260905005552 82 181 12.2 23.5 0.00 0.00 0.00 26 998.2
20260905005052 82 193 15.6 23.5 0.00 0.00 0.00 26 998.2
20260905004552 83 167 13.9 24.3 0.00 0.00 0.00 26 998.3
20260905004049 83 176 15.6 24.3 0.00 0.00 0.00 26 998.3
20260905003548 83 172 17.4 25.2 0.00 0.00 0.00 27 998.2
20260905003049 83 181 16.5 33.0 0.00 0.00 0.00 27 998.2
20260905002549 83 171 21.7 33.0 0.00 0.00 0.00 26 998.3
20260905002046 84 173 16.5 26.9 0.00 0.00 0.00 26 998.3
20260905001554 84 180 19.1 26.9 0.00 0.00 0.00 25 998.4
20260905001045 84 159 13.0 22.6 0.00 0.00 0.00 26 998.3
20260905000545 84 163 15.6 20.9 0.00 0.00 0.00 26 998.3
20260905000048 84 172 15.6 26.1 0.00 0.00 0.00 26 998.3
20260904235548 84 155 16.5 30.4 0.00 0.00 0.00 26 998.4
20260904235043 84 196 20.9 30.4 0.00 0.00 0.00 26 998.4
20260904234543 84 153 16.5 26.9 0.00 0.00 0.00 26 998.4
20260904234042 84 174 17.4 26.1 0.00 0.00 0.00 26 998.5
20260904233542 84 175 13.9 25.2 0.00 0.00 0.00 26 998.5
20260904233044 84 189 17.4 24.3 0.00 0.00 0.00 25 998.5
20260904232541 84 170 15.6 26.9 0.00 0.00 0.00 25 998.5
20260904232041 85 153 20.0 26.9 0.00 0.00 0.00 25 998.6
20260904231551 85 174 18.2 24.3 0.00 0.00 0.00 24 998.5
20260904231039 84 181 16.5 27.8 0.00 0.00 0.00 25 998.6
20260904230539 85 140 18.2 26.9 0.00 0.00 0.00 24 998.5
20260904230039 85 146 18.2 26.9 0.00 0.00 0.00 25 998.7
20260904225539 85 159 17.4 26.1 0.00 0.00 0.00 24 998.6
20260904225036 85 145 15.6 26.1 0.00 0.00 0.00 25 998.6
20260904224546 85 177 16.5 26.9 0.00 0.00 0.00 25 998.8
20260904224037 84 151 16.5 21.7 0.00 0.00 0.00 24 998.8
20260904223534 84 158 12.2 23.5 0.00 0.00 0.00 26 998.8
20260904223036 84 145 18.2 30.4 0.00 0.00 0.00 26 998.8
20260904222536 84 138 20.0 26.1 0.00 0.00 0.00 25 998.9
20260904222032 84 151 20.0 28.7 0.00 0.00 0.00 25 999.0
20260904221532 84 179 17.4 27.8 0.00 0.00 0.00 24 999.1
20260904221032 84 145 17.4 26.9 0.00 0.00 0.00 26 999.0
20260904220532 84 145 17.4 23.5 0.00 0.00 0.00 25 999.1
20260904220030 84 169 17.4 26.9 0.00 0.00 0.00 25 999.1
20260904215530 83 143 17.4 26.9 0.00 0.00 0.00 26 999.1
20260904215029 84 138 15.6 30.4 0.00 0.00 0.00 26 999.3
20260904214528 83 168 15.6 30.4 0.00 0.00 0.00 25 999.3
20260904214026 83 144 13.9 28.7 0.00 0.00 0.00 26 999.3
20260904213529 82 157 20.9 28.7 0.00 0.00 0.00 25 999.4
20260904213028 83 140 18.2 27.8 0.00 0.00 0.00 25 999.4
20260904212527 83 136 16.5 26.9 0.00 0.00 0.00 25 999.5
20260904212024 84 150 19.1 26.9 0.00 0.00 0.00 25 999.7
20260904211523 84 166 13.9 20.9 0.00 0.00 0.00 24 999.6
20260904211026 83 165 16.5 25.2 0.00 0.00 0.00 25 999.8
20260904210521 83 135 15.6 25.2 0.00 0.00 0.00 25 999.7
20260904210021 83 177 16.5 23.5 0.00 0.00 0.00 25 999.9
20260904205521 83 161 16.5 21.7 0.00 0.00 0.00 25 999.8
20260904205020 82 163 14.8 30.4 0.00 0.00 0.00 25 999.9
20260904204518 82 147 19.1 30.4 0.00 0.00 0.00 25 999.9
20260904204018 82 174 18.2 26.1 0.00 0.00 0.00 24 1000.1
20260904203518 83 154 13.9 24.3 0.00 0.00 0.00 25 1000.1
20260904203016 82 171 14.8 22.6 0.00 0.00 0.00 25 1000.1
20260904202517 81 174 16.5 24.3 0.00 0.00 0.00 27 1000.0
20260904202014 80 124 13.0 26.1 0.00 0.00 0.00 27 1000.2
20260904201514 80 136 17.4 27.8 0.00 0.00 0.00 27 1000.2
20260904201013 80 147 17.4 29.5 0.00 0.00 0.00 27 1000.4
20260904200517 80 163 15.6 27.8 0.00 0.00 0.00 28 1000.4
20260904200013 80 163 15.6 27.8 0.00 0.00 0.00 26 1000.6
20260904195513 80 170 17.4 33.0 0.00 0.00 0.00 26 1000.5
20260904195012 79 188 19.1 33.0 0.00 0.00 0.00 26 1000.5
20260904194512 80 141 15.6 26.9 0.00 0.00 0.00 26 1000.5
20260904194012 80 163 20.0 30.4 0.00 0.00 0.00 25 1000.6
20260904193512 81 142 20.9 30.4 0.00 0.00 0.00 25 1000.6
20260904193011 82 141 17.4 25.2 0.00 0.00 0.00 24 1000.6
20260904192510 81 179 18.2 25.2 0.00 0.00 0.00 25 1000.7
20260904192010 79 165 20.0 28.7 0.00 0.00 0.00 26 1000.8
20260904191511 80 132 18.2 28.7 0.00 0.00 0.00 26 1000.7
20260904191009 79 151 16.5 26.9 0.00 0.00 0.00 28 1000.8
20260904190509 79 132 19.1 26.9 0.00 0.00 0.00 28 1000.9
20260904190010 79 150 13.9 26.9 0.00 0.00 0.00 27 1001.1
20260904185507 78 139 19.1 29.5 0.00 0.00 0.00 28 1001.2
20260904185007 78 149 15.6 29.5 0.00 0.00 0.00 29 1001.3
20260904184507 78 122 15.6 26.9 0.00 0.00 0.00 28 1001.2
20260904184007 78 164 18.2 26.9 0.00 0.00 0.00 27 1001.2
20260904183506 78 150 22.6 28.7 0.00 0.00 0.00 26 1001.3
20260904183012 79 159 17.4 25.2 0.00 0.00 0.00 27 1001.3
20260904182505 79 184 18.2 25.2 0.00 0.00 0.00 26 1001.4
20260904182005 78 134 20.9 26.9 0.00 0.00 0.00 28 1001.3
20260904181508 79 181 20.9 26.1 0.00 0.00 0.00 26 1001.4
20260904181008 79 151 15.6 26.1 0.00 0.00 0.00 27 1001.3
20260904180503 78 182 20.9 28.7 0.00 0.00 0.00 26 1001.5
20260904180004 78 165 20.0 30.4 0.00 0.00 0.00 27 1001.6
20260904175505 78 145 22.6 30.4 0.00 0.00 0.00 28 1001.5
20260904175002 78 161 19.1 30.4 0.00 0.00 0.00 27 1001.6
20260904174501 77 173 19.1 26.9 0.00 0.00 0.00 27 1001.6
20260904174001 77 182 22.6 27.8 0.00 0.00 0.00 27 1001.6
20260904173503 77 145 18.2 26.9 0.00 0.00 0.00 29 1001.6
20260904173003 77 168 19.1 28.7 0.00 0.00 0.00 29 1001.6
20260904172503 77 164 19.1 30.4 0.00 0.00 0.00 29 1001.5
20260904172001 77 169 17.4 30.4 0.00 0.00 0.00 30 1001.6
20260904171602 77 147 21.7 31.3 0.00 0.00 0.00 28 1001.6
20260904171500 77 163 19.1 31.3 0.00 0.00 0.00 29 1001.6
20260904171100 76 145 20.9 31.3 0.00 0.00 0.00 29 1001.6
20260904170600 77 183 20.0 26.9 0.00 0.00 0.00 27 1001.6
20260904170100 76 165 21.7 33.9 0.00 0.00 0.00 29 1001.5
20260904165600 76 158 22.6 33.9 0.00 0.00 0.00 28 1001.6
20260904165100 77 138 20.9 31.3 0.00 0.00 0.00 28 1001.6
20260904164558 77 182 18.2 25.2 0.00 0.00 0.00 27 1001.7
20260904164057 77 180 17.4 26.9 0.00 0.00 0.00 26 1001.7
20260904163557 76 171 17.4 26.9 0.00 0.00 0.00 27 1001.6
20260904163100 76 132 18.2 27.8 0.00 0.00 0.00 26 1001.8
20260904162558 76 182 20.0 26.9 0.00 0.00 0.00 24 1001.8
20260904162057 76 159 15.6 24.3 0.00 0.00 0.00 24 1001.8
20260904161609 76 165 19.1 24.3 0.00 0.00 0.00 24 1001.8